Location: Austin
(30.3000°N, 97.7500°W)
Time: 01:22:00
(UTC-05:00)

Terra - Pass Details

Date: 15 May 2024
Orbit: 691 x 696 km, 98.0° (Epoch: 29 May)

Event Time Altitude Azimuth Distance (km) Brightness Sun altitude
Exits shadow 22:24:06 31° 56° (NE) 1,197 2.8 -23.7°
Drops below altitude 10° 22:27:40 10° 10° (N) 2,151 4.7 -24.3°
Sets 22:30:05 0° 1° (N) 3,070 5.7 -24.7°
